Palm Springs, CA

11:41 PM PDT on March 23, 2017 (GMT -0700)
Palm Springs International

Weather History for KPSP - March, 2013

Change the Weather History Date:

Thursday, March 28, 2013

  Actual Average Record
Temperature  
Mean Temperature 72 °F 68 °F  
Max Temperature 86 °F 81 °F 100 °F (2015)
Min Temperature 58 °F 54 °F 37 °F (1945)
Degree Days  
Heating Degree Days 0 1  
Month to date heating degree days 22 69  
Since 1 July heating degree days 760 847  
Cooling Degree Days 7 4  
Month to date cooling degree days 187 79  
Year to date cooling degree days 199 106  
Growing Degree Days 22 (Base 50)    
Moisture  
Dew Point 39 °F    
Average Humidity 39    
Maximum Humidity 62    
Minimum Humidity 15    
Precipitation  
Precipitation 0.00 in 0.01 in 0.36 in (1979)
Month to date precipitation 0.04 0.60  
Year to date precipitation 0.97 2.63  
Since 1 July precipitation 2.19  
Snow  
Snow 0.00 in - - ()
Month to date snowfall 0.0  
Year to date snowfall 0.0  
Snow Depth 0.00 in    
Sea Level Pressure  
Sea Level Pressure 29.93 in    
Wind  
Wind Speed 3 mph (ESE)    
Max Wind Speed 12 mph    
Max Gust Speed 17 mph    
Visibility 10 miles    
Events      
T = Trace of Precipitation, MM = Missing Value Source: NWS Daily Summary

Daily Weather History Graph

Daily Weather History Graph

Search for Another Location

Airport or City:

Trip Planner

Search our weather history database for the weather conditions in past years. The results will help you decide how hot, cold, wet, or windy it might be!

Date:

Astronomy

Mar. 28, 2013 Rise Set
Actual Time 6:38 AM PDT 7:03 PM PDT
Civil Twilight 6:13 AM PDT 7:29 PM PDT
Nautical Twilight 5:44 AM PDT 7:58 PM PDT
Astronomical Twilight 5:14 AM PDT 8:28 PM PDT
Moon 8:53 PM PDT (3/28) 7:14 AM PDT (3/28)
Length of Visible Light 13h 15m
Length of Day
12h 25m
Full, 98% of the Moon is Illuminated
Mar 28
Full
Apr 2
Last Quarter
Apr 10
New
Apr 18
First Quarter
Apr 25
Full

Hourly Weather History & Observations

Time (PDT) Temp. Dew Point Humidity Pressure Visibility Wind Dir Wind Speed Gust Speed Precip Events Conditions
12:53 AM 66.0 °F 45.0 °F 47% 29.89 in 10.0 mi South 4.6 mph - N/A   Clear
1:53 AM 66.0 °F 45.0 °F 47% 29.89 in 10.0 mi East 3.5 mph - N/A   Clear
2:53 AM 64.0 °F 45.0 °F 50% 29.89 in 10.0 mi Calm Calm - N/A   Clear
3:53 AM 60.1 °F 46.0 °F 60% 29.88 in 10.0 mi SSW 3.5 mph - N/A   Clear
4:53 AM 60.1 °F 46.9 °F 62% 29.89 in 10.0 mi Calm Calm - N/A   Clear
5:53 AM 62.1 °F 44.1 °F 52% 29.91 in 10.0 mi Calm Calm - N/A   Scattered Clouds
6:53 AM 59.0 °F 46.0 °F 62% 29.93 in 10.0 mi Calm Calm - N/A   Scattered Clouds
7:53 AM 64.9 °F 42.1 °F 43% 29.95 in 10.0 mi Calm Calm - N/A   Clear
8:53 AM 71.1 °F 42.1 °F 35% 29.98 in 10.0 mi Calm Calm - N/A   Clear
9:53 AM 73.9 °F 39.0 °F 28% 29.98 in 10.0 mi Calm Calm - N/A   Scattered Clouds
10:53 AM 77.0 °F 37.9 °F 24% 29.99 in 10.0 mi Calm Calm - N/A   Clear
11:53 AM 79.0 °F 35.1 °F 20% 29.99 in 10.0 mi ESE 5.8 mph - N/A   Scattered Clouds
12:53 PM 82.9 °F 32.0 °F 16% 29.97 in 10.0 mi East 8.1 mph - N/A   Clear
1:53 PM 82.9 °F 30.9 °F 15% 29.94 in 10.0 mi East 5.8 mph - N/A   Clear
2:53 PM 84.9 °F 32.0 °F 15% 29.91 in 10.0 mi ESE 9.2 mph - N/A   Scattered Clouds
3:53 PM 84.9 °F 34.0 °F 16% 29.90 in 10.0 mi ESE 10.4 mph - N/A   Scattered Clouds
4:53 PM 84.9 °F 33.1 °F 16% 29.90 in 10.0 mi SE 6.9 mph - N/A   Scattered Clouds
5:53 PM 84.0 °F 34.0 °F 17% 29.90 in 10.0 mi SSE 8.1 mph - N/A   Scattered Clouds
6:53 PM 82.0 °F 36.0 °F 19% 29.91 in 10.0 mi ENE 6.9 mph - N/A   Clear
7:53 PM 81.0 °F 37.0 °F 21% 29.91 in 10.0 mi NW 4.6 mph - N/A   Clear
8:53 PM 78.1 °F 34.0 °F 20% 29.94 in 10.0 mi ESE 3.5 mph - N/A   Clear
9:53 PM 77.0 °F 36.0 °F 23% 29.95 in 10.0 mi East 6.9 mph - N/A   Clear
10:53 PM 73.9 °F 39.0 °F 28% 29.96 in 10.0 mi Calm Calm - N/A   Clear
11:53 PM 72.0 °F 41.0 °F 33% 29.96 in 10.0 mi West 3.5 mph - N/A   Clear